EW9532 Weather Reports


time (UTC)temp
F
wind
direction
speed
knots
gust
knots
rain 1hr
in
rain 24hr
in
rain mn
in
humidity
%
barometer
mb
20260906051603 77 101 0.0 1.7 0.00 0.01 0.00 87 1014.7
20260906051102 78 278 0.0 1.7 0.00 0.01 0.00 87 1014.6
20260906050602 78 328 0.0 1.7 0.00 0.01 0.00 87 1014.8
20260906050116 78 232 0.0 1.7 0.00 0.01 0.00 87 1014.8
20260906050114 77 268 0.0 2.6 0.00 0.01 0.00 86 1015.0
20260906045604 78 73 0.9 2.6 0.00 0.01 0.01 87 1014.8
20260906045103 78 232 1.7 2.6 0.00 0.01 0.01 87 1014.8
20260906044656 77 203 0.0 0.9 0.00 0.01 0.01 86 1014.8
20260906044604 78 86 0.0 0.9 0.00 0.01 0.01 86 1014.6
20260906044306 78 228 0.0 0.9 0.00 0.01 0.01 86 1014.6
20260906043533 78 228 0.0 1.7 0.00 0.01 0.01 85 1014.6
20260906043059 77 0 0.0 1.7 0.00 0.01 0.01 85 1014.8
20260906043032 78 139 0.0 1.7 0.00 0.01 0.01 85 1014.6
20260906042532 78 65 0.0 1.7 0.00 0.01 0.01 85 1014.5
20260906042031 78 65 0.0 1.7 0.00 0.01 0.01 84 1014.3
20260906041553 77 224 0.0 1.7 0.00 0.01 0.01 84 1014.6
20260906041532 78 30 0.0 1.7 0.00 0.01 0.01 84 1014.5
20260906041519 78 333 0.0 1.7 0.00 0.01 0.01 85 1014.3
20260906040754 77 257 0.0 1.7 0.00 0.01 0.01 85 1014.2
20260906040138 77 0 0.0 1.7 0.00 0.01 0.01 85 1014.4
20260906040030 77 10 0.0 1.7 0.00 0.01 0.01 86 1014.1
20260906035530 77 195 0.9 2.6 0.00 0.01 0.01 86 1014.0
20260906035030 77 358 1.7 2.6 0.00 0.01 0.01 87 1013.8
20260906035020 76 226 0.9 2.6 0.00 0.01 0.01 88 1013.7
20260906034606 75 318 0.9 2.6 0.00 0.01 0.01 88 1013.9
20260906034030 75 224 0.9 1.7 0.00 0.01 0.01 90 1013.8
20260906033529 75 32 0.0 2.6 0.00 0.01 0.01 91 1013.9
20260906033100 74 351 0.9 3.5 0.00 0.01 0.01 91 1014.0
20260906033029 75 317 1.7 3.5 0.00 0.01 0.01 91 1013.8
20260906032531 74 358 0.9 3.5 0.01 0.01 0.01 92 1013.9
20260906032030 74 186 1.7 2.6 0.01 0.01 0.01 92 1013.9
20260906031601 73 321 0.0 2.6 0.01 0.01 0.01 92 1014.2
20260906031530 74 225 0.9 2.6 0.01 0.01 0.01 93 1014.0
20260906031030 74 234 0.0 1.7 0.01 0.01 0.01 93 1014.2
20260906030530 74 37 0.0 0.9 0.01 0.01 0.01 92 1014.3
20260906030054 73 52 0.0 1.7 0.01 0.01 0.01 91 1014.5
20260906030030 74 177 0.0 1.7 0.01 0.01 0.01 91 1014.2
20260906025531 74 239 0.9 2.6 0.01 0.00 0.01 91 1014.3
20260906025031 74 283 0.0 2.6 0.01 0.00 0.01 90 1014.2
20260906024603 74 292 0.9 4.3 0.01 0.01 0.01 89 1014.7
20260906024531 74 175 0.9 2.6 0.01 0.00 0.01 89 1014.5
20260906024032 74 315 0.9 5.2 0.01 0.00 0.01 87 1014.3
20260906024012 74 164 2.6 6.1 0.01 0.00 0.01 85 1014.4
20260906023255 75 211 3.5 8.7 0.01 0.00 0.01 85 1014.5
20260906023103 74 340 2.6 9.6 0.01 0.01 0.01 84 1014.6
20260906022530 75 219 3.5 8.7 0.00 0.00 0.00 85 1014.5
20260906022030 76 321 5.2 17.4 0.00 0.00 0.00 82 1014.5
20260906021608 76 270 7.8 16.5 0.00 0.00 0.00 79 1015.0
20260906021530 77 223 7.8 17.4 0.00 0.00 0.00 80 1014.8
20260906021030 78 137 7.0 23.5 0.00 0.00 0.00 77 1014.7
20260906020530 80 131 7.8 23.5 0.00 0.00 0.00 71 1014.6
20260906020106 80 224 7.8 16.5 0.00 0.00 0.00 71 1014.8
20260906020029 81 342 7.8 17.4 0.00 0.00 0.00 72 1014.6
20260906015530 82 73 10.4 17.4 0.00 0.00 0.00 71 1014.7
20260906015030 84 290 7.8 18.2 0.00 0.00 0.00 70 1014.5
20260906014559 87 255 8.7 18.2 0.00 0.00 0.00 64 1014.6
20260906014530 88 156 10.4 18.2 0.00 0.00 0.00 64 1014.4
20260906014030 90 250 3.5 7.0 0.00 0.00 0.00 67 1013.6
20260906013530 90 260 2.6 7.0 0.00 0.00 0.00 67 1013.3
20260906013055 90 271 2.6 8.7 0.00 0.00 0.00 65 1013.4
20260906013030 90 231 3.5 7.0 0.00 0.00 0.00 66 1013.2
20260906012530 91 250 1.7 7.0 0.00 0.00 0.00 65 1013.0
20260906012030 91 321 1.7 7.0 0.00 0.00 0.00 65 1012.9
20260906011557 91 275 3.5 7.0 0.00 0.00 0.00 64 1012.8
20260906011530 91 182 4.3 7.0 0.00 0.00 0.00 64 1012.6
20260906011030 91 82 2.6 6.1 0.00 0.00 0.00 64 1012.3
20260906010530 92 292 2.6 7.8 0.00 0.00 0.00 63 1012.0
20260906010108 91 134 2.6 9.6 0.00 0.00 0.00 62 1012.2
20260906010029 92 215 2.6 10.4 0.00 0.00 0.00 63 1012.0
20260906005752 92 139 2.6 10.4 0.00 0.00 0.00 62 1011.8
20260906005031 92 20 3.5 7.8 0.00 0.00 0.00 61 1011.8
20260906004600 92 130 3.5 8.7 0.00 0.00 0.00 60 1011.9
20260906004530 93 167 3.5 7.8 0.00 0.00 0.00 60 1011.6
20260906004031 93 220 3.5 9.6 0.00 0.00 0.00 60 1011.4
20260906003529 93 265 3.5 9.6 0.00 0.00 0.00 59 1011.4
20260906003100 93 166 3.5 8.7 0.00 0.00 0.00 58 1011.4
20260906003029 93 294 3.5 9.6 0.00 0.00 0.00 58 1011.1
20260906002748 94 307 3.5 7.8 0.00 0.00 0.00 57 1010.9
20260906002030 94 162 3.5 7.8 0.00 0.00 0.00 58 1010.9
20260906001606 94 218 3.5 7.8 0.00 0.00 0.00 56 1011.2
20260906001530 95 313 3.5 7.0 0.00 0.00 0.00 56 1010.8
20260906001030 95 146 3.5 9.6 0.00 0.00 0.00 55 1010.8
20260906000530 95 52 5.2 9.6 0.00 0.00 0.00 55 1010.5
20260906000030 96 236 4.3 9.6 0.00 0.00 0.00 55 1010.5
20260905235530 96 107 4.3 8.7 0.00 0.00 0.00 54 1010.5
20260905235031 97 211 1.7 6.1 0.00 0.00 0.00 53 1010.3
20260905234559 96 60 3.5 7.8 0.00 0.00 0.00 51 1010.4
20260905234532 97 89 3.5 7.8 0.00 0.00 0.00 52 1009.9
20260905234031 97 226 4.3 7.8 0.00 0.00 0.00 51 1009.9
20260905233530 97 220 2.6 9.6 0.00 0.00 0.00 50 1009.7
20260905233108 97 344 3.5 10.4 0.00 0.00 0.00 49 1010.0
20260905233030 97 326 3.5 11.3 0.00 0.00 0.00 50 1009.7
20260905232531 97 130 4.3 11.3 0.00 0.00 0.00 49 1009.7
20260905232030 98 335 4.3 9.6 0.00 0.00 0.00 49 1009.8
20260905231554 98 61 5.2 10.4 0.00 0.00 0.00 48 1010.0
20260905231530 98 342 5.2 9.6 0.00 0.00 0.00 48 1009.7
20260905231030 99 264 3.5 8.7 0.00 0.00 0.00 49 1009.6
20260905230530 99 164 4.3 8.7 0.00 0.00 0.00 47 1009.7
20260905230108 99 312 2.6 9.6 0.00 0.00 0.00 47 1010.1
20260905230030 100 37 2.6 9.6 0.00 0.00 0.00 47 1009.7
20260905225530 100 293 4.3 9.6 0.00 0.00 0.00 46 1009.8
20260905225030 100 143 4.3 7.8 0.00 0.00 0.00 46 1009.7
20260905224601 100 77 3.5 10.4 0.00 0.00 0.00 45 1009.9
20260905224530 101 201 4.3 10.4 0.00 0.00 0.00 46 1009.6
20260905224030 101 16 2.6 10.4 0.00 0.00 0.00 45 1009.5
20260905223530 101 155 4.3 10.4 0.00 0.00 0.00 43 1009.3
20260905223054 101 320 3.5 9.6 0.00 0.00 0.00 42 1009.7
20260905223027 101 119 4.3 9.6 0.00 0.00 0.00 43 1009.4
20260905222748 102 316 2.6 8.7 0.00 0.00 0.00 43 1009.4
20260905222018 101 66 3.5 11.3 0.00 0.00 0.00 42 1009.3
20260905221603 101 186 4.3 10.4 0.00 0.00 0.00 41 1009.4
20260905221513 101 117 4.3 11.3 0.00 0.00 0.00 42 1009.2
20260905221010 102 233 3.5 8.7 0.00 0.00 0.00 42 1009.0
20260905220505 102 82 2.6 6.1 0.00 0.00 0.00 42 1009.1
20260905220450 102 134 2.6 7.0 0.00 0.00 0.00 43 1009.1
20260905220104 102 259 1.7 7.8 0.00 0.00 0.00 42 1009.4
20260905215505 102 293 3.5 8.7 0.00 0.00 0.00 43 1009.1
20260905215003 102 122 2.6 8.7 0.00 0.00 0.00 42 1009.2
20260905214604 102 329 1.7 7.8 0.00 0.00 0.00 42 1009.6
20260905214504 102 34 2.6 7.8 0.00 0.00 0.00 43 1009.3
20260905214003 102 265 2.6 9.6 0.00 0.00 0.00 42 1009.3
20260905213504 102 82 5.2 9.6 0.00 0.00 0.00 41 1009.4
20260905213110 102 27 5.2 10.4 0.00 0.00 0.00 40 1009.7
20260905213003 103 111 6.1 9.6 0.00 0.00 0.00 40 1009.5
20260905212503 103 14 2.6 9.6 0.00 0.00 0.00 41 1009.5
20260905212003 103 231 4.3 8.7 0.00 0.00 0.00 40 1009.6
20260905211734 103 44 1.7 6.1 0.00 0.00 0.00 40 1009.7
20260905211555 103 148 2.6 7.0 0.00 0.00 0.00 39 1009.9
20260905211003 103 200 3.5 8.7 0.00 0.00 0.00 40 1009.9
20260905210503 102 126 4.3 8.7 0.00 0.00 0.00 40 1009.8
20260905210110 102 351 2.6 7.8 0.00 0.00 0.00 39 1010.2
20260905210004 102 136 2.6 7.8 0.00 0.00 0.00 40 1010.0
20260905205727 102 46 4.3 7.8 0.00 0.00 0.00 41 1010.2
20260905205004 102 131 2.6 7.0 0.00 0.00 0.00 40 1010.0
20260905204600 102 236 1.7 6.1 0.00 0.00 0.00 40 1010.5
20260905204502 103 12 1.7 6.1 0.00 0.00 0.00 40 1010.3
20260905204002 102 323 3.5 7.8 0.00 0.00 0.00 41 1010.3
20260905203724 102 350 3.5 7.8 0.00 0.00 0.00 41 1010.5
20260905203058 102 177 2.6 7.0 0.00 0.00 0.00 41 1010.9
20260905203001 102 314 3.5 7.8 0.00 0.00 0.00 43 1010.6
20260905202724 102 261 2.6 5.2 0.00 0.00 0.00 43 1010.7
20260905202004 103 157 2.6 7.0 0.00 0.00 0.00 43 1010.7
20260905201604 102 74 2.6 7.0 0.00 0.00 0.00 42 1011.1
20260905201503 102 167 2.6 7.0 0.00 0.00 0.00 42 1010.9
20260905201002 102 230 2.6 6.1 0.00 0.00 0.00 44 1011.0
20260905200502 101 354 1.7 6.1 0.00 0.00 0.00 44 1011.0
20260905200115 101 163 2.6 6.1 0.00 0.00 0.00 44 1011.5
20260905200002 101 352 3.5 7.0 0.00 0.00 0.00 44 1011.3
20260905195728 101 79 2.6 7.0 0.00 0.00 0.00 45 1011.4
20260905195002 101 336 3.5 7.0 0.00 0.00 0.00 45 1011.4
20260905194610 101 26 1.7 6.1 0.00 0.00 0.00 46 1011.8
20260905194502 101 146 1.7 7.0 0.00 0.00 0.00 46 1011.4
20260905194002 100 158 1.7 5.2 0.00 0.00 0.00 46 1011.6
20260905193502 100 141 2.6 7.0 0.00 0.00 0.00 46 1011.7
20260905193054 99 213 4.3 8.7 0.00 0.00 0.00 48 1011.9
20260905193001 99 297 5.2 7.0 0.00 0.00 0.00 48 1011.7
20260905192501 100 298 5.2 7.0 0.00 0.00 0.00 46 1011.7
20260905192003 100 272 3.5 6.1 0.00 0.00 0.00 47 1011.7
20260905191602 100 173 1.7 6.1 0.00 0.00 0.00 46 1012.1
20260905191504 101 56 1.7 7.0 0.00 0.00 0.00 47 1012.0
20260905190940 100 251 2.6 7.0 0.00 0.00 0.00 48 1012.0
20260905190440 100 330 3.5 7.0 0.00 0.00 0.00 47 1012.2
20260905190429 100 193 1.7 5.2 0.00 0.00 0.00 48 1012.1
20260905190128 100 90 1.7 7.0 0.00 0.00 0.00 47 1012.3
20260905185430 100 120 2.6 6.1 0.00 0.00 0.00 48 1012.3
20260905184930 100 326 2.6 6.1 0.00 0.00 0.00 49 1012.3
20260905184611 99 49 1.7 7.0 0.00 0.00 0.00 48 1012.7
20260905184430 100 191 0.9 7.0 0.00 0.00 0.00 48 1012.5
20260905183930 99 259 3.5 7.0 0.00 0.00 0.00 50 1012.6
20260905183648 99 194 2.6 8.7 0.00 0.00 0.00 51 1012.5
20260905183055 98 178 2.6 7.8 0.00 0.00 0.00 48 1012.8
20260905182924 99 39 3.5 8.7 0.00 0.00 0.00 49 1012.6
20260905182419 99 285 3.5 8.7 0.00 0.00 0.00 51 1012.7
20260905181915 99 193 4.3 8.7 0.00 0.00 0.00 50 1012.8
20260905181557 98 27 3.5 9.6 0.00 0.00 0.00 51 1013.0
20260905181410 99 315 3.5 9.6 0.00 0.00 0.00 51 1012.8
20260905180905 98 63 1.7 9.6 0.00 0.00 0.00 52 1012.9
20260905180405 98 252 3.5 8.7 0.00 0.00 0.00 52 1013.0
20260905180059 97 233 2.6 8.7 0.00 0.00 0.00 52 1013.3
20260905175904 97 307 4.3 8.7 0.00 0.00 0.00 52 1013.2
20260905175404 98 359 3.5 7.0 0.00 0.00 0.00 51 1013.2
20260905174904 97 178 2.6 7.8 0.00 0.00 0.00 55 1013.2
20260905174604 97 274 2.6 7.8 0.00 0.00 0.00 54 1013.5
20260905174403 97 160 2.6 7.8 0.00 0.00 0.00 54 1013.2
20260905173903 97 8 3.5 7.8 0.00 0.00 0.00 55 1013.4
20260905173403 97 25 3.5 7.0 0.00 0.00 0.00 56 1013.5
20260905173103 96 245 2.6 8.7 0.00 0.00 0.00 56 1013.8
20260905172902 96 252 2.6 7.8 0.00 0.00 0.00 55 1013.5
20260905172402 96 120 1.7 7.8 0.00 0.00 0.00 57 1013.7
20260905171902 96 99 2.6 7.0 0.00 0.00 0.00 57 1013.7
20260905171607 96 53 2.6 9.6 0.00 0.00 0.00 56 1014.0
20260905171402 97 89 2.6 7.0 0.00 0.00 0.00 56 1013.7
20260905171124 96 80 2.6 7.0 0.00 0.00 0.00 58 1013.8
20260905170623 96 285 4.3 7.0 0.00 0.00 0.00 56 1013.8
20260905170104 95 314 2.6 9.6 0.00 0.00 0.00 56 1014.0
20260905165902 96 265 3.5 9.6 0.00 0.00 0.00 58 1013.9
20260905165402 95 7 3.5 9.6 0.00 0.00 0.00 59 1014.0
20260905164904 95 358 3.5 7.8 0.00 0.00 0.00 59 1013.9
20260905164558 95 25 1.7 9.6 0.00 0.00 0.00 59 1014.2
20260905164404 95 102 3.5 9.6 0.00 0.00 0.00 60 1014.1
20260905163904 95 204 3.5 9.6 0.00 0.00 0.00 59 1014.0
20260905163602 95 340 2.6 7.0 0.00 0.00 0.00 59 1014.1
20260905163102 95 20 1.7 8.7 0.00 0.00 0.00 60 1014.3
20260905162832 94 229 2.6 9.6 0.00 0.00 0.00 60 1014.1
20260905162331 94 242 2.6 9.6 0.00 0.00 0.00 63 1014.1
20260905161831 93 307 3.5 7.0 0.00 0.00 0.00 62 1014.2
20260905161606 93 202 2.6 7.0 0.00 0.00 0.00 63 1014.4
20260905161329 93 177 2.6 7.8 0.00 0.00 0.00 64 1014.3
20260905160829 93 274 3.5 7.8 0.00 0.00 0.00 63 1014.3
20260905160329 93 60 2.6 7.0 0.00 0.00 0.00 65 1014.3
20260905160058 93 51 2.6 7.0 0.00 0.00 0.00 64 1014.6
20260905155829 93 278 2.6 6.1 0.00 0.00 0.00 66 1014.2
20260905155328 92 354 2.6 7.0 0.00 0.00 0.00 66 1014.4
20260905154829 92 70 2.6 7.0 0.00 0.00 0.00 66 1014.3
20260905154602 92 3 2.6 7.0 0.00 0.00 0.00 67 1014.5
20260905154329 92 202 3.5 7.0 0.00 0.00 0.00 67 1014.3
20260905153829 91 345 2.6 6.1 0.00 0.00 0.00 69 1014.3
20260905153329 91 347 2.6 8.7 0.00 0.00 0.00 70 1014.5
20260905153100 90 294 1.7 8.7 0.00 0.00 0.00 70 1014.7
20260905152829 90 4 3.5 8.7 0.00 0.00 0.00 71 1014.5
20260905152328 89 210 3.5 5.2 0.00 0.00 0.00 71 1014.6
20260905151831 89 146 1.7 5.2 0.00 0.00 0.00 72 1014.7
20260905151602 89 217 1.7 8.7 0.00 0.00 0.00 72 1014.9
20260905151330 89 18 1.7 8.7 0.00 0.00 0.00 73 1014.6
20260905150830 89 13 3.5 8.7 0.00 0.00 0.00 72 1014.6
20260905150331 89 271 2.6 7.8 0.00 0.00 0.00 73 1014.7
20260905150059 88 41 3.5 8.7 0.00 0.00 0.00 74 1014.8
20260905145830 89 316 3.5 7.8 0.00 0.00 0.00 75 1014.5
20260905145330 88 28 3.5 7.8 0.00 0.00 0.00 75 1014.5
20260905145054 88 291 1.7 6.1 0.00 0.00 0.00 77 1014.5
20260905144555 87 141 2.6 7.0 0.00 0.00 0.00 77 1014.6
20260905144329 87 155 2.6 6.1 0.00 0.00 0.00 78 1014.5
20260905143829 87 100 3.5 7.0 0.00 0.00 0.00 78 1014.5
20260905143328 87 62 2.6 7.0 0.00 0.00 0.00 79 1014.4
20260905143105 86 189 2.6 7.8 0.00 0.00 0.00 79 1014.6
20260905142829 86 64 2.6 7.0 0.00 0.00 0.00 79 1014.4
20260905142328 86 340 2.6 7.8 0.00 0.00 0.00 79 1014.3
20260905141830 86 259 3.5 7.8 0.00 0.00 0.00 81 1014.2
20260905141603 85 198 1.7 8.7 0.00 0.00 0.00 81 1014.5
20260905141331 85 105 2.6 7.0 0.00 0.00 0.00 81 1014.2
20260905140829 85 155 2.6 6.1 0.00 0.00 0.00 81 1014.3
20260905140329 85 299 2.6 7.0 0.00 0.00 0.00 82 1014.3
20260905140059 85 312 1.7 7.8 0.00 0.00 0.00 82 1014.4
20260905135829 85 243 3.5 7.8 0.00 0.00 0.00 83 1014.1
20260905135329 85 7 2.6 7.8 0.00 0.00 0.00 83 1014.2
20260905134831 85 271 2.6 7.8 0.00 0.00 0.00 83 1014.1
20260905134557 84 1 1.7 8.7 0.00 0.00 0.00 83 1014.2
20260905134331 84 172 3.5 7.8 0.00 0.00 0.00 83 1013.9
20260905134057 84 311 1.7 5.2 0.00 0.00 0.00 84 1013.9
20260905133329 84 302 1.7 5.2 0.00 0.00 0.00 84 1013.9
20260905133102 83 294 1.7 5.2 0.00 0.00 0.00 84 1014.0
20260905132828 84 142 0.9 5.2 0.00 0.00 0.00 85 1013.8
20260905132328 83 348 0.9 3.5 0.00 0.00 0.00 85 1013.7
20260905132058 83 15 1.7 4.3 0.00 0.00 0.00 85 1013.7
20260905131603 83 33 0.9 4.3 0.00 0.00 0.00 85 1013.8
20260905131552 83 333 1.7 4.3 0.00 0.00 0.00 85 1013.6
20260905131036 83 221 1.7 3.5 0.00 0.00 0.00 85 1013.7
20260905130310 83 209 0.9 3.5 0.00 0.00 0.00 85 1013.4
20260905130057 83 184 0.9 4.3 0.00 0.00 0.00 85 1013.7
20260905130043 83 333 0.9 4.3 0.00 0.00 0.00 86 1013.5
20260905125306 83 216 0.9 4.3 0.00 0.00 0.00 86 1013.3
20260905124808 82 2 0.9 3.5 0.00 0.00 0.00 87 1013.4
20260905124604 82 107 0.9 3.5 0.00 0.00 0.00 87 1013.6
20260905124532 82 290 1.7 3.5 0.00 0.00 0.00 88 1013.2
20260905123806 82 94 0.9 3.5 0.00 0.00 0.00 88 1013.2
20260905123304 82 48 0.9 3.5 0.00 0.00 0.00 88 1013.2
20260905123108 81 146 0.0 3.5 0.00 0.00 0.00 87 1013.3
20260905123022 81 338 0.9 3.5 0.00 0.00 0.00 88 1013.1
20260905122306 81 103 0.9 5.2 0.00 0.00 0.00 88 1013.0
20260905121801 82 343 0.9 5.2 0.00 0.00 0.00 88 1013.0
20260905121603 81 94 0.9 5.2 0.00 0.00 0.00 87 1013.0
20260905121303 81 190 0.9 2.6 0.00 0.00 0.00 88 1012.9
20260905120815 82 203 1.7 2.6 0.00 0.00 0.00 88 1012.9
20260905120302 81 228 0.0 2.6 0.00 0.00 0.00 88 1013.0
20260905120104 81 296 0.0 3.5 0.00 0.00 0.00 87 1013.2
20260905115802 82 247 0.9 3.5 0.00 0.00 0.00 88 1012.9
20260905115523 82 212 0.9 3.5 0.00 0.00 0.00 87 1012.8
20260905114802 82 16 0.9 2.6 0.00 0.00 0.00 87 1012.7
20260905114611 81 103 0.9 3.5 0.00 0.00 0.00 87 1013.0
20260905114302 82 33 1.7 2.6 0.00 0.00 0.00 87 1012.8
20260905114023 82 257 0.9 1.7 0.00 0.00 0.00 87 1012.8
20260905113302 82 80 0.9 1.7 0.00 0.00 0.00 87 1012.8
20260905113109 81 137 0.0 2.6 0.00 0.00 0.00 87 1013.0
20260905112802 82 185 0.0 2.6 0.00 0.00 0.00 87 1012.8
20260905112305 82 280 0.9 4.3 0.00 0.00 0.00 87 1012.8
20260905111802 82 25 1.7 4.3 0.00 0.00 0.00 87 1012.8
20260905111615 82 0 0.9 4.3 0.00 0.00 0.00 87 1013.0
20260905111302 82 259 0.9 4.3 0.00 0.00 0.00 87 1012.7
20260905110815 82 313 0.9 4.3 0.00 0.00 0.00 87 1012.7
20260905110302 82 205 0.9 4.3 0.00 0.00 0.00 87 1012.6
20260905110104 82 243 0.0 3.5 0.00 0.00 0.00 87 1012.8
20260905105802 82 224 0.9 4.3 0.00 0.00 0.00 87 1012.6
20260905105300 82 34 0.9 3.5 0.00 0.00 0.00 87 1012.8
20260905105032 82 96 0.9 4.3 0.00 0.00 0.00 87 1012.7
20260905104558 82 307 0.0 4.3 0.00 0.00 0.00 86 1013.0
20260905104301 82 320 1.7 4.3 0.00 0.00 0.00 87 1012.7
20260905103801 82 190 1.7 3.5 0.00 0.00 0.00 87 1012.8
20260905103301 82 118 0.9 2.6 0.00 0.00 0.00 87 1012.8
20260905103052 82 114 0.0 5.2 0.00 0.00 0.00 86 1013.1
20260905102801 82 288 0.9 5.2 0.00 0.00 0.00 87 1012.9
20260905102300 82 311 1.7 5.2 0.00 0.00 0.00 87 1012.8
20260905101801 83 139 0.9 3.5 0.00 0.00 0.00 87 1012.9
20260905101552 82 11 0.9 3.5 0.00 0.00 0.00 86 1013.1
20260905101303 83 281 0.9 3.5 0.00 0.00 0.00 87 1012.8
20260905100802 83 227 1.7 3.5 0.00 0.00 0.00 87 1012.8
20260905100302 83 342 0.9 3.5 0.00 0.00 0.00 86 1012.8
20260905100107 82 313 0.9 3.5 0.00 0.00 0.00 86 1013.1
20260905095802 83 240 0.9 3.5 0.00 0.00 0.00 86 1012.9
20260905095300 83 244 1.7 4.3 0.00 0.00 0.00 86 1012.9
20260905094801 83 154 1.7 4.3 0.00 0.00 0.00 86 1012.9
20260905094605 82 202 0.9 3.5 0.00 0.00 0.00 86 1013.1
20260905094301 83 169 1.7 4.3 0.00 0.00 0.00 86 1012.9
20260905093801 83 20 1.7 3.5 0.00 0.00 0.00 86 1012.9
20260905093301 83 23 1.7 4.3 0.00 0.00 0.00 86 1013.0
20260905093055 83 185 1.7 6.1 0.00 0.00 0.00 85 1013.1
20260905093034 83 118 1.7 5.2 0.00 0.00 0.00 86 1012.9
20260905092748 83 83 1.7 5.2 0.00 0.00 0.00 86 1012.9
20260905091801 83 228 1.7 5.2 0.00 0.00 0.00 86 1013.0
20260905091609 83 60 1.7 4.3 0.00 0.00 0.00 85 1013.2
20260905091302 83 358 0.9 5.2 0.00 0.00 0.00 85 1012.9
20260905090802 83 203 2.6 3.5 0.00 0.00 0.00 85 1013.0
20260905090301 83 253 0.9 6.1 0.00 0.00 0.00 85 1013.1
20260905085801 83 187 1.7 6.1 0.00 0.00 0.00 85 1013.1
20260905085305 83 296 0.9 3.5 0.00 0.00 0.00 85 1013.0
20260905084800 83 117 2.6 4.3 0.00 0.00 0.00 85 1013.1
20260905084611 83 106 1.7 5.2 0.00 0.00 0.00 84 1013.2
20260905084525 83 243 1.7 4.3 0.00 0.00 0.00 85 1013.0
20260905083802 83 272 0.9 4.3 0.00 0.00 0.00 85 1013.0
20260905083302 84 341 0.9 6.1 0.00 0.00 0.00 85 1013.1
20260905083101 83 286 0.9 6.1 0.00 0.00 0.00 84 1013.4
20260905082802 84 295 2.6 6.1 0.00 0.00 0.00 85 1013.2
20260905082300 84 301 1.7 5.2 0.00 0.00 0.00 84 1013.1
20260905081801 84 348 1.7 5.2 0.00 0.00 0.00 84 1013.2
20260905081616 83 314 0.9 6.1 0.00 0.00 0.00 84 1013.4
20260905081521 84 272 1.7 7.0 0.00 0.00 0.00 84 1013.2
20260905080801 84 163 2.6 7.0 0.00 0.00 0.00 84 1013.2
20260905080527 84 46 2.6 4.3 0.00 0.00 0.00 84 1013.1
20260905080057 83 333 0.9 4.3 0.00 0.00 0.00 84 1013.3
20260905075801 84 51 0.9 5.2 0.00 0.00 0.00 84 1013.2
20260905075301 84 331 1.7 6.1 0.00 0.00 0.00 84 1013.2
20260905074801 84 272 1.7 6.1 0.00 0.00 0.00 84 1013.3
20260905074603 84 206 1.7 6.1 0.00 0.00 0.00 83 1013.6
20260905074301 84 185 1.7 6.1 0.00 0.00 0.00 84 1013.3
20260905074021 84 195 0.9 5.2 0.00 0.00 0.00 84 1013.4
20260905073425 84 12 1.7 5.2 0.00 0.00 0.00 83 1013.8
20260905073302 84 224 1.7 5.2 0.00 0.00 0.00 84 1013.5
20260905072801 84 176 1.7 4.3 0.00 0.00 0.00 84 1013.4
20260905072301 84 234 1.7 4.3 0.00 0.00 0.00 84 1013.6
20260905071800 84 141 1.7 4.3 0.00 0.00 0.00 84 1013.8
20260905071719 84 269 1.7 4.3 0.00 0.00 0.00 84 1013.9
20260905071303 84 13 0.9 4.3 0.00 0.00 0.00 84 1013.7
20260905070751 84 157 0.0 7.0 0.00 0.00 0.00 84 1013.8
20260905070246 85 53 2.6 7.0 0.00 0.00 0.00 84 1013.9
20260905065745 85 263 1.7 5.2 0.00 0.00 0.00 84 1013.9
20260905065239 85 207 1.7 5.2 0.00 0.00 0.00 84 1013.7
20260905064735 85 234 1.7 5.2 0.00 0.00 0.00 84 1013.8
20260905064603 84 105 1.7 4.3 0.00 0.00 0.00 83 1014.0
20260905064234 85 184 0.9 5.2 0.00 0.00 0.00 83 1013.7
20260905063733 85 199 1.7 6.1 0.00 0.00 0.00 83 1013.7
20260905063229 85 84 1.7 6.1 0.00 0.00 0.00 83 1013.8
20260905063114 84 301 1.7 6.1 0.00 0.00 0.00 83 1013.9
20260905062734 85 155 1.7 5.2 0.00 0.00 0.00 83 1013.6
20260905062234 85 233 1.7 7.8 0.00 0.00 0.00 83 1013.6
20260905061733 85 320 3.5 7.8 0.00 0.00 0.00 83 1013.7
20260905061611 84 37 0.9 7.0 0.00 0.00 0.00 82 1013.8
20260905061451 85 92 3.5 7.0 0.00 0.00 0.00 82 1013.7
20260905060731 85 358 1.7 6.1 0.00 0.00 0.00 82 1013.8
20260905060231 85 169 2.6 6.1 0.00 0.00 0.00 82 1013.6
20260905060053 84 9 2.6 6.1 0.00 0.00 0.00 81 1013.9
20260905055730 85 357 1.7 6.1 0.00 0.00 0.00 82 1013.6
20260905055230 85 327 1.7 6.1 0.00 0.00 0.00 82 1013.5
20260905054728 85 191 1.7 6.1 0.00 0.00 0.00 82 1013.5
20260905054603 84 243 1.7 5.2 0.00 0.00 0.00 81 1013.7
20260905054230 85 184 1.7 6.1 0.00 0.00 0.00 81 1013.5
20260905053730 85 164 1.7 5.2 0.00 0.00 0.00 81 1013.6
20260905053451 85 239 2.6 7.8 0.00 0.00 0.00 81 1013.6
20260905053059 85 181 0.9 9.6 0.00 0.00 0.00 80 1013.8
20260905052712 85 330 2.6 7.8 0.00 0.00 0.00 81 1013.6
20260905052209 85 46 2.6 7.8 0.00 0.00 0.00 81 1013.7
20260905051706 85 165 2.6 8.7 0.00 0.00 0.00 81 1013.6